This demonstration page uses our WeatherBlox Daily Observations layout. Learn more.

Left ArrowRight Arrow

Hourly Observations for November 17, 2015

Temp ( °F °C ) Dew Point ( °F °C ) Humidity (%) Winds ( mph kmh ) Pressure ( in mb ) Visibility ( mi km ) Precip ( " mm )
12:53 am 00:53 Clear 49 9.4 27 -2.8 43 43 WSW 13 20 29.62 1003 10 16 0.00 0.00
1:53 am 01:53 Partly Cloudy 49 9.4 27 -2.8 43 43 W 17 28 29.61 1003 10 16 0.00 0.00
2:53 am 02:53 Mostly Clear 49 9.4 27 -2.8 43 43 W 32 52 29.60 1002 10 16 0.00 0.00
3:53 am 03:53 Clear 47 8.3 26 -3.3 44 44 W 29 46 29.60 1002 10 16 0.00 0.00
4:53 am 04:53 Clear 46 7.8 27 -2.8 47 47 W 26 43 29.62 1003 10 16 0.00 0.00
5:53 am 05:53 Clear 45 7.2 27 -2.8 49 49 W 21 33 29.63 1003 10 16 0.00 0.00
6:53 am 06:53 Clear 45 7.2 27 -2.8 49 49 W 23 37 29.64 1004 10 16 0.00 0.00
7:53 am 07:53 Sunny 45 7.2 26 -3.3 48 48 WSW 24 39 29.63 1003 10 16 0.00 0.00
8:53 am 08:53 Sunny 49 9.4 27 -2.8 43 43 W 36 57 29.64 1004 10 16 0.00 0.00
9:53 am 09:53 Sunny 51 10.6 27 -2.8 39 39 W 32 52 29.65 1004 10 16 0.00 0.00
10:53 am 10:53 Sunny 54 12.2 27 -2.8 35 35 W 33 54 29.65 1004 10 16 0.00 0.00
11:53 am 11:53 Sunny 57 13.9 27 -2.8 32 32 W 26 43 29.65 1004 10 16 0.00 0.00
12:53 pm 12:53 Sunny 59 15 27 -2.8 29 29 W 28 44 29.63 1003 10 16 0.00 0.00
1:53 pm 13:53 Sunny 62 16.7 27 -2.8 26 26 W 24 39 29.61 1003 10 16 0.00 0.00
2:53 pm 14:53 Sunny 62 16.7 27 -2.8 26 26 W 24 39 29.60 1003 10 16 0.00 0.00
3:53 pm 15:53 Sunny 62 16.7 26 -3.3 25 25 W 21 33 29.62 1003 10 16 0.00 0.00
4:53 pm 16:53 Sunny 61 16 27 -3 27 27 W 24 39 29.65 1004 10 16 0.00 0.00
5:53 pm 17:53 Clear 58 14.4 27 -2.8 31 31 W 15 24 29.67 1005 10 16 0.00 0.00
6:53 pm 18:53 Clear 54 12.2 28 -2.2 37 37 W 12 19 29.70 1006 10 16 0.00 0.00
7:53 pm 19:53 Clear 53 11.7 28 -2.2 38 38 WSW 13 20 29.73 1007 10 16 0.00 0.00
8:53 pm 20:53 Clear 49 9.4 28 -2.2 44 44 W 9 15 29.75 1008 10 16 0.00 0.00
9:53 pm 21:53 Clear 47 8.3 28 -2.2 48 48 WSW 9 15 29.77 1008 10 16 0.00 0.00
10:53 pm 22:53 Clear 45 7.2 29 -1.7 54 54 WSW 9 15 29.77 1008 10 16 0.00 0.00
11:53 pm 23:53 Clear 45 7.2 29 -1.7 54 54 WSW 12 19 29.77 1008 10 16 0.00 0.00

Powered by AerisWeather